Miscellaneous Local Product
Issued by NWS North Platte, NE

Home | Current Version | Previous Version | Text Only | Print | Product List | Glossary On
Versions: 1 2 3 4 5 6 7 8 9 10 11 12 13 14 15 16 17 18 19 20 21 22 23 24 25 26 27 28 29 30 31 32 33 34 35 36 37 38 39 40 41 42 43 44 45 46 47 48 49 50
240
AXUS43 KLBF 230410
MISLBF


WESTERN AND NORTH CENTRAL NEBRASKA HOURLY WEATHER ROUNDUP
NATIONAL WEATHER SERVICE NORTH PLATTE NE
1100 PM CDT SUN OCT 22 2017

NOTE: "FAIR" INDICATES FEW OR NO CLOUDS BELOW 12,000 FEET WITH NO
SIGNIFICANT WEATHER AND/OR OBSTRUCTIONS TO VISIBILITY.

NOTE: STATIONS NOT REPORTING VARIABLES SUCH AS SKY/WEATHER OR
PRESSURE ARE PROVIDED BY RAWS AND APRS NETWORKS AND ARE NOT UNDER
NATIONAL WEATHER SERVICE QUALITY CONTROL.

...OBSERVATIONS IN AND NEAR THE EASTERN PANHANDLE OF NEBRASKA...

CITY           SKY/WX    TMP DP  RH WIND       PRES   REMARKS
PINE RIDGE     CLOUDY    57  31  37 CALM      29.93R
GORDON         FAIR      53  32  44 W9        29.94R
CHADRON        CLOUDY    52  29  41 W5        29.95R
ALLIANCE       CLEAR     52  29  41 W12       29.99R
SIDNEY         CLOUDY    48  28  46 W12       30.07R
CRESCENT LAKE    N/A     59  30  33 W10G20      N/A
$$

...OBSERVATIONS IN NORTHERN NEBRASKA AND FAR SOUTHERN SOUTH DAKOTA...

CITY           SKY/WX    TMP DP  RH WIND       PRES   REMARKS
WINNER         FAIR      56  34  43 SW13      29.83S
VALENTINE      MOCLDY    54  35  48 SW9       29.88S
THEDFORD       CLEAR     51  35  53 W5        29.94F
AINSWORTH      CLEAR     52  35  52 SW9       29.89S
O`NEILL        CLOUDY    51  35  55 SW6       29.88F
ORD            CLOUDY    50  31  48 SW9       29.91F
BROKEN BOW     CLEAR     43  34  70 CALM      29.94F
VALENTINE NWR    N/A     52  34  50 SW7         N/A
HALSEY           N/A     52  31  43 SW6         N/A
BUTTE            N/A     53  35  50 SW3         N/A
CHAMBERS         N/A     53  32  44 S5          N/A
EWING            N/A     54  32  43 S5G12       N/A
$$

...OBSERVATIONS IN SOUTHWEST NEBRASKA AND FAR NORTHEAST COLORADO...

CITY           SKY/WX    TMP DP  RH WIND       PRES   REMARKS
HOLYOKE        FAIR      45  32  61 W9        30.05R
IMPERIAL       CLOUDY    43  31  62 SW6       30.02S
OGALLALA       CLEAR     44  33  67 W6        30.01S
NORTH PLATTE   PTCLDY    45  37  73 CALM      29.97F
MCCOOK         CLEAR     52  27  38 W9        30.01R
LEXINGTON      CLEAR     53  29  39 SW6       29.98R
STAPLETON        N/A     50  35  57 CALM        N/A
GOTHENBURG       N/A     60  26  27 SW3         N/A
CALLAWAY         N/A     53  35  51 SW8         N/A
$$

...OBSERVATIONS IN CENTRAL LINCOLN COUNTY AREA...

CITY           SKY/WX    TMP DP  RH WIND       PRES   REMARKS
N.P. AIRPORT   PTCLDY    45  37  73 CALM      29.97F
N.P. DOWNTOWN    N/A     50  36  59 CALM        N/A
N.P. SOUTHEAST   N/A     54  35  49 CALM        N/A
N.P. HILLCREST   N/A     52  36  54 CALM        N/A
$$

...SOME OBSERVATIONS FROM AROUND THE REGION...

CITY           SKY/WX    TMP DP  RH WIND       PRES   REMARKS
DENVER         CLOUDY    60  24  25 NW8       30.14R
LIMON          CLOUDY    36  28  73 N5        30.15S WCI  32
ASPEN          CLOUDY    36  29  75 S7        30.48R WCI  30
LARAMIE        CLOUDY    47  25  42 SW6       30.25R
CASPER         CLOUDY    48  30  49 SW15      30.13R
CHEYENNE       CLOUDY    53  26  35 E6        30.16R
SCOTTSBLUFF    CLEAR     61  29  29 W17G23    30.02R
GRAND ISLAND   CLEAR     56  29  35 S14       29.96F
OMAHA          CLEAR     50  36  58 SE10      29.97S
SIOUX FALLS    CLOUDY    57  33  40 S12       29.85F
PIERRE         PTCLDY    51  40  65 N8        29.81R
RAPID CITY     CLOUDY    60  35  39 NW33G48   29.95R
BISMARCK       CLOUDY    57  40  52 W12       29.71R
KANSAS CITY    CLEAR     45  40  82 S8        30.06S
HILL CITY      CLEAR     54  27  35 SW5       30.03S
WICHITA        CLEAR     49  43  80 S8        30.08S
DODGE CITY     CLOUDY    46  27  47 S8        30.07F
OKLAHOMA CITY  PTCLDY    50  42  74 SW3       30.13S
DALLAS         CLEAR     60  40  47 NW8       30.15S
AMARILLO       CLOUDY    50  34  54 S10       30.15S
$$




USA.gov is the U.S. government's official web portal to all federal, state and local government web resources and services.